RH
63 62 59 58 60 61 62 64 63 59 58 55 53 57 63 63 62 61 58 56 55 53 50 47 44 44 43 41 39 37 35 34 34 35 35 35 35 35 36 36 36 35 34 33 33 31 31 31 29 28 26 24 23 22 22 25 25 23 21 21 23 25 24 23 22 18 15 13 13 12 10 11 11 11 12 11 11 12 13 12 11 12 12 15 19
68 69 65 61 61 63 63 65 66 65 63 60 57 61 66 67 66 65 63 61 59 57 55 53 50 48 49 48 46 43 39 37 35 35 35 35 35 36 36 37 38 38 37 36 36 36 35 35 35 34 32 30 29 27 26 27 26 23 23 21 20 21 21 22 23 21 18 16 16 15 14 15 15 14 13 11 11 12 12 12 11 11 11 13 15
69 72 70 66 65 64 64 66 68 70 69 65 61 62 67 70 70 67 67 66 64 63 62 59 56 52 51 51 51 49 46 43 40 37 36 35 35 34 34 35 37 38 39 37 37 39 39 39 39 38 37 37 36 34 32 31 29 27 27 24 21 21 20 20 22 22 22 22 23 22 21 19 16 13 12 13 14 16 16 15 14 14 14 16 17
71 75 76 73 68 67 70 72 71 73 75 70 65 64 68 73 73 71 70 70 70 69 66 64 61 56 55 54 53 53 53 50 46 43 40 39 38 37 37 37 38 40 40 40 40 40 40 41 41 41 41 39 39 38 38 38 35 32 29 26 24 24 24 23 23 23 23 22 21 21 21 19 15 14 16 16 17 18 18 18 18 17 17 17 17
67 71 76 76 72 72 76 78 74 75 78 75 70 67 69 73 76 76 74 73 74 74 70 67 64 61 59 58 56 56 56 54 50 46 44 43 42 42 42 42 43 44 44 45 44 43 42 41 41 42 41 39 38 37 37 38 37 34 32 29 27 26 25 24 23 22 21 20 18 16 16 17 17 17 18 18 18 18 19 20 19 18 17 16 15
62 66 69 71 71 72 75 79 81 81 81 79 76 73 73 76 79 80 78 77 79 79 75 72 70 66 64 63 62 62 59 57 53 48 46 45 44 44 44 44 46 48 48 48 48 47 47 45 43 42 40 39 36 34 33 33 32 32 31 31 30 29 27 26 24 21 21 21 20 17 15 17 19 19 19 19 19 19 19 19 18 18 18 18 17
51 56 60 63 66 67 67 71 80 83 80 78 76 73 73 75 76 78 79 79 80 80 79 77 75 73 71 69 68 66 64 62 59 55 51 48 47 48 47 46 47 49 51 52 51 50 49 48 47 44 42 42 39 35 33 31 29 28 28 28 29 29 27 26 25 23 21 21 22 23 22 22 22 21 20 20 20 19 19 19 18 19 20 21 21
45 45 48 52 57 61 59 58 64 71 73 74 73 71 70 70 70 73 76 76 77 78 81 84 83 81 80 77 73 70 66 65 64 62 60 57 55 55 54 53 52 52 55 56 54 51 50 49 48 47 45 46 45 42 38 33 28 26 26 27 28 28 27 26 27 27 26 25 26 27 27 26 24 23 22 21 21 21 21 21 20 20 20 21 21
46 44 43 44 46 50 52 50 51 55 58 64 68 68 67 65 66 71 72 72 72 73 77 82 82 79 77 76 75 74 73 72 71 71 69 66 61 58 58 59 58 57 57 56 53 52 53 51 50 49 49 47 45 44 41 36 29 25 27 29 29 29 28 26 27 30 31 30 29 28 27 26 25 24 23 23 22 21 20 20 20 19 19 19 19
44 43 43 44 45 46 49 50 51 50 51 55 58 58 57 57 61 67 69 69 70 72 75 78 77 75 72 69 69 72 76 77 76 76 78 74 66 60 62 63 62 59 58 57 56 56 57 54 50 49 48 46 43 42 41 36 28 25 28 29 29 29 29 28 28 30 31 33 33 32 32 30 30 28 26 25 24 23 22 22 21 21 20 21 21
43 43 42 43 43 43 45 47 49 49 49 51 52 51 51 51 55 60 64 66 66 67 71 73 73 72 71 69 66 65 69 70 69 71 75 72 66 63 67 68 64 60 58 59 58 55 54 52 48 46 45 43 41 41 39 33 24 21 25 27 26 27 28 28 29 29 30 32 33 35 35 35 36 36 34 31 30 29 27 27 26 25 25 24 24
43 43 43 42 41 41 42 43 43 43 44 46 47 48 49 50 51 54 57 59 60 60 61 63 62 62 62 63 63 61 61 62 64 67 70 69 66 64 66 68 65 61 59 58 57 54 51 49 46 43 42 41 39 39 36 29 21 19 21 23 23 24 25 27 28 29 31 32 34 36 38 39 40 40 40 39 36 33 31 29 29 28 28 27 25
41 41 41 41 40 40 40 40 41 41 42 44 46 47 48 48 47 48 49 51 52 52 53 52 51 52 53 52 52 51 51 52 55 59 64 66 65 63 64 64 60 58 57 54 54 54 52 50 48 45 43 42 41 40 36 30 26 24 25 25 23 23 24 26 28 29 32 35 37 39 41 43 44 43 43 43 42 40 37 34 32 30 29 28 27
39 40 39 39 39 39 38 39 39 40 40 41 42 44 44 45 48 49 47 46 45 44 45 46 45 46 48 49 46 45 46 48 48 50 53 56 58 61 65 61 53 50 50 47 48 51 51 49 48 46 44 45 44 42 38 36 34 33 32 30 27 23 23 25 27 28 31 34 36 38 40 41 43 43 43 46 47 47 45 42 39 35 32 30 28
40 39 39 38 37 36 37 37 38 37 37 37 39 39 40 43 49 51 50 47 45 42 41 42 42 42 44 47 45 42 46 49 50 50 51 53 58 64 65 57 47 44 42 40 41 44 45 46 45 43 44 46 45 41 38 37 37 37 37 35 31 28 27 28 29 30 31 33 35 36 36 37 39 40 42 45 48 48 47 46 44 42 39 34 31
40 39 38 38 36 36 36 36 36 35 35 34 34 35 35 38 41 43 43 43 41 39 38 37 38 38 39 42 42 40 42 45 45 48 51 54 59 63 60 51 43 40 39 38 38 39 40 43 44 45 47 46 43 41 41 42 42 41 40 37 34 32 31 32 33 34 34 36 37 36 35 34 35 37 39 43 44 45 45 44 44 44 43 39 36
42 40 39 38 38 38 38 38 37 36 35 34 33 32 31 32 32 32 34 35 36 37 36 34 35 35 35 38 40 40 42 44 45 48 50 51 52 53 52 48 43 40 38 38 40 42 44 46 48 50 49 47 45 46 47 47 46 43 40 38 36 35 34 35 36 36 36 36 36 35 33 32 31 32 34 37 40 43 43 42 42 43 42 41 39
42 41 41 41 40 40 41 41 40 38 37 35 33 32 30 29 28 29 30 33 34 35 35 33 33 34 34 35 37 39 41 43 44 47 50 51 51 51 50 48 43 40 40 42 45 48 49 51 52 51 49 47 48 49 49 49 49 46 43 40 38 36 34 34 34 34 33 32 32 31 31 30 29 29 30 32 37 41 43 43 43 43 42 42 41
40 40 41 42 42 42 43 44 44 42 40 38 35 34 31 29 29 30 32 34 35 35 35 35 34 34 33 34 36 39 42 43 44 46 49 53 54 53 50 45 41 42 45 47 49 51 52 52 52 50 48 47 49 48 48 48 47 45 42 39 36 34 33 32 32 31 30 30 30 30 30 29 29 28 28 29 32 36 40 42 43 43 43 43 43
40 41 42 41 41 42 41 42 43 43 43 43 42 40 36 33 32 33 35 37 39 39 37 36 35 34 34 35 38 40 43 47 49 50 52 52 52 51 48 43 40 43 47 49 50 52 53 52 51 49 47 45 45 45 44 44 43 41 39 36 34 34 33 32 32 32 31 30 30 30 29 28 28 28 29 29 29 31 34 37 39 41 43 44 44
44 44 44 44 43 42 41 40 41 41 42 43 44 44 42 38 36 37 38 40 42 42 41 39 37 37 37 38 39 41 45 49 51 54 55 52 49 47 44 42 42 43 45 49 51 52 52 51 49 47 46 44 43 43 43 43 41 40 39 37 36 36 35 35 34 33 32 31 30 30 29 29 30 31 32 33 32 32 33 34 36 38 41 43 43
48 48 49 48 47 46 44 43 41 41 42 42 42 43 43 41 41 41 41 42 43 43 43 42 40 40 40 41 43 46 49 51 54 56 54 50 46 41 37 38 43 44 44 48 49 47 49 50 47 47 49 49 47 46 46 45 43 42 41 38 37 36 34 33 33 32 32 31 32 32 33 33 33 34 34 34 35 34 34 34 35 36 38 39 41
50 50 51 51 51 50 48 47 46 46 46 46 45 44 44 45 46 46 45 44 44 45 44 43 42 43 43 43 46 50 53 55 55 53 49 44 39 34 32 36 42 44 43 44 44 44 46 48 50 53 55 53 51 50 49 46 43 41 38 36 35 34 34 34 35 35 35 35 36 37 37 36 36 36 36 35 36 36 35 35 35 34 35 36 38
51 51 51 51 51 51 50 50 50 49 49 49 48 48 48 50 52 52 51 48 46 47 48 45 44 45 46 47 49 53 56 57 53 46 40 35 31 30 33 38 42 43 42 43 48 51 51 52 55 57 55 53 52 50 46 42 39 37 36 36 37 38 38 38 39 39 39 38 38 38 38 38 37 37 37 37 37 38 38 38 37 36 35 35 36
53 52 50 50 50 50 50 50 49 49 50 49 48 46 47 51 52 53 54 53 50 51 51 49 47 49 50 50 53 56 57 54 48 39 35 34 33 35 40 42 43 44 42 46 55 60 60 61 62 59 56 55 52 47 42 40 40 41 41 41 42 42 42 42 41 41 40 39 39 39 39 39 38 38 38 38 38 39 40 40 39 38 37 36 36
54 52 51 51 50 48 46 45 44 45 46 46 45 42 43 46 48 51 54 55 55 53 52 50 51 53 52 50 51 52 50 45 39 35 35 39 42 45 48 50 51 48 45 49 56 61 66 71 70 62 57 54 49 44 44 45 46 46 46 46 45 45 44 43 42 41 40 39 39 39 39 40 40 40 40 40 40 39 40 41 41 41 41 40 39
52 51 50 50 49 47 44 42 42 41 41 41 40 38 37 40 44 47 49 52 53 52 50 51 53 52 49 47 44 42 39 36 35 35 40 46 50 51 54 56 56 54 52 53 54 58 67 73 68 60 55 52 49 48 48 48 48 48 47 46 45 44 43 41 41 40 40 40 40 41 41 41 42 43 43 43 43 42 42 43 44 44 44 44 43
52 50 49 48 47 44 41 39 38 37 36 35 33 32 32 34 38 40 42 46 48 47 47 48 49 47 45 42 38 33 33 37 41 44 48 51 51 53 57 57 56 57 58 57 56 60 65 66 62 59 57 54 52 50 49 48 48 47 44 43 43 42 41 41 41 41 42 42 42 42 42 42 42 43 45 45 46 45 46 47 47 48 48 47 47
54 52 47 43 39 34 30 32 32 31 31 31 30 30 33 36 38 40 42 43 44 44 45 46 45 42 38 33 29 27 32 40 45 47 50 52 52 53 55 54 54 57 59 58 58 61 63 62 62 62 58 53 51 49 47 47 45 43 42 42 41 41 41 41 42 43 43 43 44 45 45 45 45 46 46 46 47 48 50 52 52 53 53 52 52
49 48 42 35 30 28 29 33 36 33 31 32 33 35 39 42 43 43 43 42 40 42 46 47 44 39 33 30 31 35 40 45 46 47 50 54 54 54 55 56 59 61 61 60 60 61 62 62 61 58 53 49 47 46 45 44 43 42 42 42 41 42 43 44 45 46 46 48 49 50 51 51 50 51 51 50 51 52 53 55 55 57 58 59 58
39 40 37 33 30 28 29 33 37 36 35 39 42 43 44 46 46 43 41 41 42 45 48 46 40 37 36 38 43 47 48 49 51 54 55 56 58 62 66 68 67 64 62 61 61 60 59 57 53 50 47 46 45 44 43 43 42 42 43 44 45 47 48 49 51 51 53 55 56 57 58 58 58 59 58 58 58 58 58 59 59 59 60 61 61
39 38 35 33 33 31 32 36 39 41 43 46 46 43 44 47 48 44 41 43 46 46 45 42 38 39 43 47 49 51 52 54 58 62 65 68 72 77 77 74 69 63 58 54 53 52 51 48 45 44 44 43 42 42 42 42 43 44 47 49 51 53 54 55 57 59 61 63 65 66 68 69 68 68 67 67 66 65 65 65 64 63 63 64 66
40 38 37 37 37 38 41 45 46 45 46 44 43 45 48 50 51 50 49 51 52 49 47 45 44 45 48 49 51 55 59 64 70 76 81 82 81 78 74 69 63 56 49 45 44 44 44 42 42 42 42 42 42 42 43 44 46 49 51 54 55 57 59 60 64 67 70 72 75 77 79 79 79 77 75 74 74 73 72 72 72 71 71 72 74
36 37 37 38 41 44 47 49 48 44 41 38 41 50 56 58 61 62 59 55 52 48 46 47 49 50 51 52 55 62 70 76 82 86 85 80 75 70 64 58 51 45 41 40 39 39 38 38 39 40 42 42 43 43 45 48 51 54 57 59 61 63 66 69 74 77 79 82 84 87 88 88 88 86 85 84 83 82 81 81 81 81 81 82 84
33 34 34 36 41 44 45 47 48 45 45 46 52 60 68 74 77 71 60 51 48 46 46 50 53 54 54 54 58 67 76 82 84 83 77 71 64 58 50 44 41 38 36 35 35 34 35 36 38 40 42 43 44 46 49 53 57 60 64 67 70 73 76 80 83 86 88 89 92 93 93 93 93 93 93 92 92 91 91 91 91 92 92 93 95
35 36 37 38 39 39 40 44 48 52 57 66 73 78 81 81 74 63 54 53 54 54 55 57 57 57 59 63 69 76 80 80 78 73 65 58 51 45 40 38 35 33 31 31 31 33 34 37 39 42 43 45 47 52 56 61 65 70 74 77 81 83 86 89 91 93 95 96 97 97 97 97 97 97 97 98 98 98 98 98 99 99 99 100 100
42 43 43 41 42 44 45 49 55 62 71 81 87 88 87 82 73 64 60 60 59 59 63 66 67 69 74 80 82 82 79 74 67 59 51 45 41 38 35 32 29 28 29 30 32 33 35 38 42 44 45 48 52 59 65 71 76 80 84 87 89 91 92 94 96 97 98 99 100 100 100 100 100 100 100 100 100 100 100 100 100 100 100 100 99
49 50 49 50 53 56 57 59 67 78 87 93 93 91 89 84 79 73 68 63 61 65 72 77 80 83 85 84 81 76 68 61 53 46 40 38 35 32 29 27 27 29 31 32 33 34 37 40 43 45 47 52 59 66 74 80 84 88 91 94 95 95 96 97 99 99 99 100 100 100 100 100 99 99 100 100 100 100 99 98 97 97 97 96 96
55 55 56 58 61 65 69 74 83 92 97 95 89 85 85 85 82 75 69 64 65 70 77 82 84 84 82 78 71 61 53 47 43 39 35 31 28 27 26 27 29 31 31 32 33 35 38 42 45 47 50 56 64 74 82 87 90 93 96 98 98 97 97 99 100 100 100 100 99 99 98 98 98 98 99 99 98 96 93 91 88 87 86 87 88
68 69 70 73 75 80 87 92 95 97 94 85 78 79 84 85 78 70 65 67 72 78 82 84 82 79 73 66 56 49 45 42 39 34 29 26 26 26 28 28 29 31 32 32 32 34 39 43 47 49 53 61 70 79 87 93 95 97 99 100 99 98 99 100 100 100 100 99 98 97 97 98 99 100 98 95 93 90 88 87 86 87 88 89 90
88 89 90 90 91 93 97 98 97 93 85 78 77 82 84 78 71 68 72 77 80 82 82 78 72 64 57 52 48 45 42 38 33 29 27 27 28 29 29 29 29 30 31 30 32 35 39 44 48 51 55 63 72 82 91 96 98 99 99 100 100 100 100 100 100 100 100 99 98 98 100 100 100 97 94 92 91 91 90 91 93 94 96 97 98
99 99 98 97 97 97 97 94 90 86 83 82 83 82 77 73 73 77 80 80 80 79 75 68 59 52 47 45 43 40 37 33 30 29 28 29 30 29 29 29 29 30 29 31 33 35 38 42 47 51 55 62 72 82 92 97 98 98 99 100 101 101 100 100 100 100 99 98 98 100 100 99 96 93 92 93 95 95 95 95 96 96 96 97 98
98 98 98 96 94 91 88 85 84 84 85 84 81 79 78 80 83 83 82 81 81 77 69 58 50 45 43 43 41 39 35 32 31 30 29 29 30 30 28 28 29 28 29 32 34 34 36 41 45 49 54 61 69 79 89 96 98 99 100 100 100 100 100 100 100 100 99 99 100 100 98 96 95 95 94 95 97 99 99 98 98 98 98 98 98
96 94 93 90 87 85 83 82 82 82 82 81 80 83 86 85 84 82 81 78 73 64 54 47 43 42 42 42 40 37 33 31 31 31 30 30 31 30 28 27 28 27 29 33 35 33 34 39 43 47 52 59 65 74 84 92 96 98 100 100 99 100 100 100 100 100 100 100 100 98 97 98 99 98 97 97 98 98 99 99 99 99 99 99 98
90 88 87 86 84 83 81 80 80 82 84 85 85 87 87 84 82 79 72 63 54 47 44 43 43 44 44 43 38 34 32 31 31 30 29 29 30 29 27 26 26 26 27 32 35 33 33 37 42 45 49 55 61 68 76 85 91 95 98 99 99 100 100 100 100 100 100 99 97 96 98 100 99 98 98 98 96 94 96 99 100 99 98 99 99
89 88 87 87 86 84 81 81 83 86 88 88 88 88 87 83 77 68 57 48 44 43 43 43 42 41 41 39 34 31 31 29 27 26 28 30 29 28 26 26 24 23 25 31 35 34 32 35 40 44 46 51 56 61 68 76 84 91 96 99 100 100 100 100 100 100 99 98 96 96 99 99 97 94 96 97 94 92 94 96 96 96 96 97 98
90 89 89 89 89 87 85 85 87 88 88 88 88 86 81 75 67 57 49 44 43 43 43 42 39 35 33 33 33 31 28 25 23 26 31 32 29 27 27 26 22 21 25 31 34 34 32 34 39 43 44 48 54 56 60 68 77 85 93 98 100 100 99 100 100 100 99 96 94 94 96 97 94 93 94 95 94 94 95 93 91 90 92 93 93
86 86 87 86 87 86 86 87 88 88 87 86 82 77 72 67 61 53 46 44 44 43 41 38 35 31 29 29 30 27 24 22 24 30 35 34 29 28 28 25 20 21 27 31 33 33 33 34 37 41 44 47 50 52 54 59 67 78 88 95 98 99 99 99 100 100 98 94 93 93 95 95 93 92 93 94 95 97 99 97 94 91 89 88 89
83 83 83 83 83 84 85 85 86 85 82 79 74 71 67 62 55 49 47 45 43 40 37 34 33 31 27 25 24 23 22 22 26 31 34 32 28 27 28 24 20 22 28 31 32 33 34 34 35 40 45 47 47 48 50 53 58 68 81 91 95 97 98 99 99 98 95 95 96 97 97 96 94 92 92 93 95 97 99 100 99 97 94 91 89
83 81 81 81 81 81 82 82 80 79 77 74 72 69 64 58 52 49 48 44 40 37 35 34 32 30 28 25 23 22 21 22 26 30 33 31 27 27 27 23 19 22 29 31 32 32 33 33 34 39 45 46 44 43 46 48 50 57 70 84 92 93 95 98 99 96 93 95 98 98 97 96 96 95 95 96 97 98 99 100 100 99 99 97 94
86 83 81 80 80 79 79 78 77 76 74 71 68 65 61 56 52 48 45 42 39 37 34 31 29 29 28 26 23 22 23 25 29 32 33 31 28 27 25 21 19 22 29 32 31 31 32 33 34 38 42 44 42 41 43 45 46 49 60 75 86 90 92 95 98 96 94 95 98 99 97 96 95 96 98 99 99 100 100 100 99 100 100 100 99